Other Public Products
Issued by NWS Charleston, SC

Current Version | Previous Version | Text Only | Print | Product List | Glossary Off
Versions: 1 2 3 4 5 6 7 8 9 10 11 12 13 14 15 16 17 18 19 20 21 22 23 24 25 26 27 28 29 30 31 32 33 34 35 36 37 38 39 40 41 42 43 44 45 46 47 48 49 50

000
FPUS82 KCHS 190127
OPUCHS

TEST...KCHS/KSAV Gateway Observations...TEST
National Weather Service Charleston SC
900 PM EDT WED APR 18 2018

NOTE: "fair" indicates few or no clouds below 12,000 feet with no
significant weather and/or obstructions to visibility.

SCZ050-WAZ558-NCZ071-TXZ119-213-PAZ071-DCZ001-FLZ074-172-MI076-
NYZ176-178-MAZ016-IL014-TNZ027-NJZ106-GAZ044-MD014-190200-

...Gateway Observations for Charleston International...

CITY           SKY/WX    TMP DP  RH WIND       PRES   REMARKS
Chas Airport   FAIR      66  55  67 S13       29.93S
Seattle        PTSUNNY   54  40  59 NE10      30.16R
Charlotte      FAIR      76  41  28 SW14G23   29.78R
Dallas DFW     PTCLDY    69  29  22 N12       30.10R
Dallas Love    PTCLDY    72  32  23 N10       30.11R
Philladelphia  FAIR      51  35  54 CALM      29.79F
Wash National  FAIR      55  37  50 SE12      29.76R
Baltimore      FAIR      52  38  58 SE5       29.75F
Miami          FAIR      74  61  63 E8        30.12R
Detroit        CLOUDY    38  30  73 NE12      29.81F WCI  30
Newark         FAIR      50  30  46 W8        29.79R
Laguardia      FAIR      52  28  39 W10       29.78R
J F K          FAIR      46  36  68 SW9       29.80R
Boston Logan   MOCLDY    47  29  49 W12       29.75R
Ft. Lauderdale FAIR      74  64  71 E13       30.11R
Chicago O`Hare FRZ DRZL  32  31  96 NW8       29.87R FOG     WCI  25
Chicago Midway LGT SNOW  34  33  96 NW6       29.87R FOG     WCI  29
Houston Bush   MOCLDY    75  67  76 NE3       30.03R
Houston Hobby  CLOUDY    76  66  71 NE7       30.02S
Nashville      FAIR      69  56  62 SW15G24   29.82R
Atlanta        FAIR      74  50  42 SW7G17    29.92S

$$

GAZ044-118-TXZ119-213-NCZ071-DCZ001-MDZ014-506-PAZ021-071-NJZ106-
NYZ176-178-MAZ106-OHZ011-021-055-MIZ076-KYZ091-ILZ014-INZ047-
MNZ060-ONZ431-190200-

...Gateway Observations for Savannah International...

CITY           SKY/WX    TMP DP  RH WIND       PRES   REMARKS
Savannah Arpt  FAIR      77  45  32 SW9       29.96R
Atlanta        FAIR      74  50  42 SW7G17    29.92S
Charlotte      FAIR      76  41  28 SW14G23   29.78R
Dallas DFW     PTCLDY    69  29  22 N12       30.10R
Houston Bush   MOCLDY    75  67  76 NE3       30.03R
Wash National  FAIR      55  37  50 SE12      29.76R
Wash Dulles    FAIR      55  38  52 E6        29.73F
Baltimore      FAIR      52  38  58 SE5       29.75F
Philadelphia   FAIR      51  35  54 CALM      29.79F
Newark         FAIR      50  30  46 W8        29.79R
Laguardia      FAIR      52  28  39 W10       29.78R
J F K          FAIR      46  36  68 SW9       29.80R
Boston         MOCLDY    47  29  49 W12       29.75R
Pittsburg      CLOUDY    52  32  46 CALM      29.72S
Akron          CLOUDY    46  34  62 NE9       29.72F
Cleveland      CLOUDY    37  31  78 NE15      29.81F WCI  28
Cincinnati     LGT RAIN  60  50  69 NW28G35   29.68R
Columbus       RAIN      51  41  69 N10G29    29.69R
Detroit        CLOUDY    38  30  73 NE12      29.81F WCI  30
Chicago O`Hare FRZ DRZL  32  31  96 NW8       29.87R FOG     WCI  25
Minneapolis    CLOUDY    40  28  62 N10       30.09R WCI  33
Indianapolis   FAIR      46  34  62 W22G35    29.81R
Toronto Canada CLOUDY    36  27  69 N8        29.81R WCI  29

$$




USA.gov is the U.S. government's official web portal to all federal, state and local government web resources and services.